Location: Maccacari
(45.1333°N, 11.1333°E)
Time: 14:14:25
(UTC+00:00)

Transit 2A Rocket - All Passes

Search period start: 25 January 2021 00:00
Search period end: 04 February 2021 00:00
Orbit: 592 x 910 km, 66.7° (Epoch: 25 January)

Date Brightness Start Highest point End Pass type
(mag) Time Alt. Az. Time Alt. Az. Time Alt. Az.
25 Jan - 10:15:54 10° S 10:20:34 29° ESE 10:24:55 10° NE daylight
25 Jan - 11:57:49 10° SW 12:03:00 45° NW 12:07:44 10° NNE daylight
25 Jan - 13:45:21 10° NW 13:46:43 11° NNW 13:48:04 10° NNW daylight
25 Jan - 18:57:14 10° NNW 19:01:14 32° NE 19:05:07 10° ESE visible
25 Jan - 20:39:54 10° NW 20:43:42 29° WSW 20:47:25 10° S visible
26 Jan - 09:34:44 10° SSE 09:38:11 17° ESE 09:41:29 10° ENE daylight
26 Jan - 11:14:52 10° SW 11:20:19 74° NW 11:25:17 10° NNE daylight
26 Jan - 13:00:34 10° WNW 13:03:38 16° NW 13:06:35 10° N daylight
26 Jan - 18:15:01 10° N 18:18:22 21° NE 18:21:39 10° E visible
26 Jan - 19:56:58 10° NW 20:01:16 55° WSW 20:05:26 10° SSE visible
27 Jan - 10:32:18 10° SSW 10:37:43 68° ESE 10:42:40 10° NE daylight
27 Jan - 12:16:34 10° W 12:20:40 23° NW 12:24:31 10° N daylight
27 Jan - 17:33:02 10° N 17:35:23 14° NE 17:37:40 10° ENE visible
27 Jan - 19:14:18 10° NNW 19:18:42 80° NE 19:23:00 10° SE visible
27 Jan - 20:59:32 10° W 21:00:30 11° WSW 21:01:27 10° WSW night (unlit)
28 Jan - 09:50:08 10° S 09:55:12 40° ESE 09:59:53 10° NE daylight
28 Jan - 11:33:01 10° WSW 11:37:50 34° NW 11:42:17 10° NNE daylight
28 Jan - 18:31:49 10° NNW 18:36:03 45° NE 18:40:10 10° SE visible
28 Jan - 20:15:03 10° WNW 20:18:14 20° WSW 20:21:23 10° SSW visible
29 Jan - 09:08:29 10° SSE 09:12:46 24° ESE 09:16:47 10° ENE daylight
29 Jan - 10:49:50 10° SW 10:55:04 54° NW 10:59:54 10° NNE daylight
29 Jan - 12:36:37 10° WNW 12:38:39 12° NNW 12:40:39 10° N daylight
29 Jan - 17:49:28 10° NNW 17:53:16 27° NE 17:56:58 10° ESE visible
29 Jan - 19:31:52 10° NW 19:35:52 36° WSW 19:39:49 10° S visible
30 Jan - 08:27:45 10° SE 08:30:26 14° ESE 08:33:00 10° ENE daylight
30 Jan - 10:07:01 10° SSW 10:12:26 87° WNW 10:17:23 10° NNE daylight
30 Jan - 11:52:11 10° W 11:55:37 18° NW 11:58:53 10° N daylight
30 Jan - 17:07:19 10° N 17:10:22 18° NE 17:13:19 10° E visible
30 Jan - 18:49:03 10° NW 18:53:24 69° WSW 18:57:39 10° SSE visible
31 Jan - 09:24:34 10° SSW 09:29:52 56° ESE 09:34:43 10° NE daylight
31 Jan - 11:08:22 10° W 11:12:42 26° NW 11:16:45 10° NNE daylight
31 Jan - 16:25:34 10° N 16:27:20 12° NNE 16:29:03 10° ENE daylight
31 Jan - 18:06:26 10° NNW 18:10:49 65° NE 18:15:04 10° SE visible
31 Jan - 19:50:36 10° WNW 19:52:44 14° WSW 19:54:51 10° SW visible
01 Feb - 08:42:35 10° S 08:47:23 33° ESE 08:51:50 10° NE daylight
01 Feb - 10:24:57 10° WSW 10:29:53 39° NW 10:34:27 10° NNE daylight
01 Feb - 17:24:00 10° NNW 17:28:06 37° NE 17:32:06 10° ESE visible
01 Feb - 19:06:54 10° WNW 19:10:26 25° WSW 19:13:56 10° SSW visible
02 Feb - 08:01:11 10° SSE 08:04:58 20° ESE 08:08:34 10° ENE daylight
02 Feb - 09:41:53 10° SW 09:47:11 64° NW 09:52:02 10° NNE daylight
02 Feb - 11:28:04 10° WNW 11:30:37 14° NW 11:33:04 10° N daylight
02 Feb - 16:41:43 10° N 16:45:17 23° NE 16:48:45 10° E daylight
02 Feb - 18:23:52 10° NW 18:28:01 46° WSW 18:32:08 10° S visible
03 Feb - 07:21:16 10° ESE 07:22:41 11° ESE 07:24:04 10° E daylight
03 Feb - 08:59:12 10° SSW 09:04:35 79° ESE 09:09:28 10° NE daylight
03 Feb - 10:43:53 10° W 10:47:37 20° NW 10:51:09 10° N daylight
03 Feb - 15:59:41 10° N 16:02:20 15° NE 16:04:56 10° ENE daylight
03 Feb - 17:41:08 10° NNW 17:45:31 86° WSW 17:49:48 10° SSE visible
